Location: Unspecified
(50.1700°N, 6.8600°E)
Time: 05:12:24
(UTC+00:00)

Cosmos 1656 Rocket - Pass Details

Date: 24 January 2019
Orbit: 796 x 846 km, 71.1° (Epoch: 22 February)

Event Time Altitude Azimuth Distance (km) Brightness Sun altitude
Exits shadow 04:58:51 23° 215° (SW) 1,719 5.0 -21.9°
Maximum altitude 05:02:29 79° 300° (WNW) 868 3.6 -21.3°
Drops below altitude 10° 05:08:11 10° 27° (NNE) 2,469 6.4 -20.4°
Sets 05:10:38 0° 29° (NNE) 3,402 7.2 -20.0°
